Find Starlink 6341

NORAD ID: 56786 Int'l Des: 2023-078 Owner: SPXS Country: US Constellation: starlink operational
LEOCIRCULAR

当前视图

正在加载3D地球...

About Starlink 6341

Starlink 6341 (NORAD 56786) is a starlink constellation satellite (v1.5) launched May 31, 2023 by SPXS of US. It operates in LEO, CIRCULAR orbit with a mass of 305.00 kg.

即将过境

Passes for default location (London). Set your location on the main map for personalized predictions.

高度历史

Loading altitude history...

两行轨道根数

1 56786U 23078V 26263.91670139 .00005089 00000-0 34350-3 0 9997
2 56786 70.0005 192.1584 0003057 227.9539 294.4135 15.07227343 5779
Epoch: Sep 20, 2026 • Age: 12 hours

当前状态

高度 550.3 km
远地点 / 近地点 N/A
速度 7.59 km/s
星下点 31.94°N, 50.96°E
发射日期 May 31, 2023
运行时间 3.3 years
类型 internet

技术详情

分类 Payload
质量 305.00 kg
干质量 290.00 kg
长度 0.20 m
跨度 9.00 m
形状 ? Box + pan
制造商 SPXS
平台类型 Starlink
阶段状态 In Orbit
所有者/国家 SPXS/US

Most Searched